This demonstration page uses our WeatherBlox Daily Observations layout. Learn more.

41.55636, -103.73856

Hourly Observations for August 29, 2016

Temp ( °F °C ) Dew Point ( °F °C ) Humidity (%) Winds ( mph kmh ) Pressure ( in mb ) Visibility ( mi km ) Precip ( " mm )
12:53 am 00:53 Clear 60 15.6 53 11.7 78 78 Calm 30.02 1017 10 16.0934 0 0
1:53 am 01:53 Clear 57 13.9 52 11.1 83 83 ENE 3 6 30.03 1017 10 16.0934 0 0
2:53 am 02:53 Clear 57 13.9 52 11.1 83 83 ENE 3 6 30.04 1017 10 16.0934 0 0
3:53 am 03:53 Clear 56 13.3 52 11.1 87 87 E 6 9 30.04 1017 10 16.0934 0 0
4:53 am 04:53 Clear 55 12.8 51 10.6 87 87 ENE 3 6 30.06 1018 10 16.0934 0 0
5:53 am 05:53 Clear 55 12.8 49 9.4 80 80 E 3 6 30.08 1019 10 16.0934 0 0
6:53 am 06:53 Sunny 53 11.7 50 10 89 89 Calm 30.11 1020 10 16.0934 0 0
7:53 am 07:53 Sunny 63 17.2 52 11.1 68 68 NNE 3 6 30.11 1020 10 16.0934 0 0
8:53 am 08:53 Sunny 71 21.7 51 10.6 49 49 Calm 30.11 1020 10 16.0934 0 0
9:53 am 09:53 Sunny 74 23.3 54 12.2 50 50 WNW 7 11 30.12 1020 10 16.0934 0 0
10:53 am 10:53 Sunny 78 25.6 53 11.7 42 42 NW 9 15 30.14 1021 10 16.0934 0 0
11:53 am 11:53 Sunny 82 27.8 51 10.6 34 34 VRB 3 6 30.12 1020 10 16.0934 0 0
12:53 pm 12:53 Sunny 84 28.9 55 12.8 37 37 S 9 15 30.11 1020 10 16.0934 0 0
1:53 pm 13:53 Sunny 87 30.6 54 12.2 32 32 ESE 10 17 30.11 1020 10 16.0934 0 0
2:53 pm 14:53 Sunny 89 31.7 50 10 26 26 E 14 22 30.09 1019 10 16.0934 0 0
3:53 pm 15:53 Sunny 88 31.1 47 8.3 24 24 E 13 20 30.09 1019 10 16.0934 0 0
4:53 pm 16:53 Sunny 85 29.4 55 12.8 36 36 SE 10 17 30.09 1019 10 16.0934 0 0
5:35 pm 17:35 Sunny with Nearby Thunderstorms 83 28.3 58 14.4 43 43 ESE 12 19 29.94 1014 10 16.0934 0 0
5:50 pm 17:50 Sunny 81 27 57 14 45 45 ESE 16 26 29.94 1014 10 16.0934 0 0
5:53 pm 17:53 Sunny 81 27.2 58 14.4 45 45 ESE 14 22 30.12 1020 10 16.0934 0 0
6:17 pm 18:17 Sunny 79 26.1 57 13.9 47 47 ESE 13 20 29.97 1015 10 16.0934 0 0
6:53 pm 18:53 Sunny 76 24.4 59 15 56 56 ESE 10 17 30.13 1020 10 16.0934 0 0
7:53 pm 19:53 Clear 71 21.7 59 15 66 66 E 7 11 30.14 1021 10 16.0934 0 0
8:53 pm 20:53 Clear 68 20 60 15.6 76 76 E 8 13 30.14 1021 10 16.0934 0 0
9:53 pm 21:53 Clear 65 18.3 60 15.6 84 84 E 5 7 30.15 1021 10 16.0934 0 0
10:53 pm 22:53 Clear 64 17.8 59 15 84 84 Calm 30.15 1021 10 16.0934 0 0
11:53 pm 23:53 Clear 62 16.7 58 14.4 86 86 E 5 7 30.14 1021 10 16.0934 0 0

Powered by AerisWeather